User: anonymous   Login
Location: Unspecified
(0.0000°N, 0.0000°E)
Time: 14:33:48
(UTC+00:00)
Language:

Kosmos-1092 - Orbit

View from above orbital plane
View from above orbital plane
View from above satellite
View from above satellite

Ground track
Ground track

The orbit data is extracted from the following two-line orbital elements,

1 11326U 79030A   18020.92824507 +.00000051 +00000-0 +37141-4 0  9996
2 11326 082.9496 159.2561 0029733 032.4399 116.7423 13.75355734180462
Epoch (UTC): 20 January 2018 22:16:40
Eccentricity: 0.0029733
inclination: 82.9496°
perigee height: 958 km
apogee height: 1002 km
right ascension of ascending node: 159.2561°
argument of perigee: 32.4399°
revolutions per day: 13.75355734
mean anomaly at epoch: 116.7423°
orbit number at epoch: 18046

The dashed part of the orbit path shows where the satellite is in the earth's shadow,  

DLR